Date,TemperatureHighF,TemperatureAvgF,TemperatureLowF,DewpointHighF,DewpointAvgF,DewpointLowF,HumidityHigh,HumidityAvg,HumidityLow,PressureMaxIn,PressureMinIn,WindSpeedMaxMPH,WindSpeedAvgMPH,GustSpeedMaxMPH,PrecipitationSumIn
2013-3-1,34,32,27,30,27,23,88,83,75,29.86,29.64,14,5,19,0.00
2013-3-2,28,25,23,24,20,15,87,79,72,29.87,29.82,17,5,17,0.00
2013-3-3,27,23,21,19,16,14,83,75,64,29.84,29.79,14,5,20,0.00
2013-3-4,29,26,24,22,19,18,83,74,65,29.97,29.82,18,7,26,0.00
2013-3-5,35,29,27,23,22,20,79,73,62,30.07,29.97,11,2,15,0.00
2013-3-6,44,35,25,29,24,19,81,65,51,30.09,29.95,10,1,14,0.00
2013-3-7,40,36,28,25,21,18,87,56,44,30.20,30.09,16,4,20,0.00
2013-3-8,38,32,28,26,24,21,89,72,50,30.35,30.19,20,6,23,0.00
2013-3-9,47,35,25,31,23,18,86,63,32,30.38,30.24,10,1,12,0.00
2013-3-10,58,46,30,24,20,15,76,40,18,30.23,29.99,20,4,27,0.00
2013-3-11,56,52,49,40,27,20,58,37,29,30.03,29.70,46,8,46,0.00
2013-3-12,56,44,37,46,37,28,87,77,58,29.87,29.67,20,5,33,0.10
2013-3-13,42,35,26,30,24,15,87,63,47,29.88,29.77,18,5,24,0.00
2013-3-14,30,25,19,20,12,6,82,58,37,29.99,29.86,30,10,33,0.00
2013-3-15,37,31,25,30,20,10,82,64,47,29.99,29.65,17,6,25,0.00
2013-3-16,32,26,21,20,13,10,63,58,50,29.95,29.81,12,3,17,0.00
2013-3-17,31,25,20,18,12,6,82,57,40,30.32,29.94,16,4,19,0.00
2013-3-18,39,27,17,27,13,-1,86,59,18,30.35,29.82,17,3,22,0.02
2013-3-19,39,32,28,33,25,16,87,79,57,29.82,29.63,18,3,22,0.00
2013-3-20,35,29,25,24,18,15,77,64,48,29.79,29.75,19,7,25,0.00
2013-3-21,32,27,22,21,14,8,78,59,39,29.79,29.67,13,5,18,0.00
2013-3-22,32,29,26,26,22,19,85,76,61,29.84,29.66,19,7,25,0.00
2013-3-23,38,33,29,26,23,19,87,69,49,29.93,29.81,16,6,26,0.00
2013-3-24,40,35,30,24,21,17,74,58,41,29.93,29.71,13,3,18,0.00
2013-3-25,45,37,31,27,23,20,67,57,38,29.71,29.52,13,2,16,0.00
2013-3-26,46,38,34,32,26,18,81,61,36,29.87,29.63,15,3,22,0.00
2013-3-27,47,39,34,31,26,23,80,61,40,29.99,29.85,16,5,24,0.00
2013-3-28,46,40,35,32,29,24,83,66,43,30.13,29.97,16,5,21,0.00
2013-3-29,46,41,35,31,29,27,75,64,49,30.14,30.07,13,4,20,0.00
2013-3-30,52,42,32,28,24,18,74,51,27,30.15,30.04,14,3,17,0.00
2013-3-31,56,45,34,40,28,18,85,56,31,30.04,29.60,24,5,33,0.01